Tracking 28126 objects as of 1-Oct-2023
HD Live streaming from Space Station
objects crossing your sky now

STARLINK-4256

Track STARLINK-4256 now!
10-day predictions
STARLINK-4256 is classified as:


NORAD ID: 52994
Int'l Code: 2022-076J
Perigee: 546.0 km
Apogee: 548.0 km
Inclination: 53.2 °
Period: 95.4 minutes
Semi major axis: 6917 km
RCS: Unknown
Launch date: July 7, 2022
Source: United States (US)
Launch site: AIR FORCE EASTERN TEST RANGE (AFETR)
Your satellite tracking list
Your tracking list is empty




NASA's NSSDC Master Catalog

Two Line Element Set (TLE):
1 52994U 22076J   23273.77148003 -.00008810  00000-0 -53653-3 0  9997
2 52994  53.2158 133.6096 0001452  87.9196 272.1963 15.08812190 68813
Source of the keplerian elements: AFSPC